Regional Weather Roundup
Issued by NWS

Home | Current Version | Previous Version | Graphics & Text | Print | Product List | Glossary On
Versions: 1 2 3 4 5 6 7 8 9 10 11 12 13 14 15 16 17 18 19 20 21 22 23 24 25 26 27 28 29 30 31 32 33 34 35 36 37 38 39 40 41 42 43 44 45 46 47 48 49 50
000
ASUS43 KFSD 010810
RWRSD

WEATHER ROUNDUP FOR SOUTH DAKOTA
NATIONAL WEATHER SERVICE SIOUX FALLS SD
300 AM CDT FRI AUG 01 2014

NOTE: "FAIR" INDICATES FEW OR NO CLOUDS BELOW 12,000 FEET WITH NO
SIGNIFICANT WEATHER AND/OR OBSTRUCTIONS TO VISIBILITY.


SDZ001>005-009-010-012>017-010900-
NORTHWEST AND NORTH CENTRAL SOUTH DAKOTA

CITY           SKY/WX    TMP DP  RH WIND       PRES   REMARKS
BUFFALO          N/A     65  47  52 W6        30.01S
FAITH            N/A     60  54  80 S13       30.06F
MOBRIDGE       PTCLDY    63  58  83 SE5       30.04R
$$

SDZ012>016-024>037-041>051-057-063-072>074-010900-
SOUTHWEST AND SOUTH CENTRAL SOUTH DAKOTA

CITY           SKY/WX    TMP DP  RH WIND       PRES   REMARKS
RAPID CTY ARPT CLEAR     58  51  78 CALM      30.11S
PIERRE         CLEAR     63  57  81 SE6       30.04S
CUSTER         PTCLDY    53  45  74 W6        30.27S
ELLSWORTH AFB  CLEAR     65  50  58 S5        30.11S
PHILIP         CLEAR     62  51  67 CALM      30.05F
PINE RIDGE     CLEAR     54  51  90 NE3       30.13F
WINNER         FAIR      66  61  84 S10       30.07F
$$

SDZ004>011-016>023-039-040-010900-
NORTHEAST SOUTH DAKOTA

CITY           SKY/WX    TMP DP  RH WIND       PRES   REMARKS
ABERDEEN       CLEAR     54  53  97 CALM      30.06R
WATERTOWN      CLEAR     58  54  86 CALM      30.07S
SISSETON         N/A     61  58  90 W6        30.03S
$$

SDZ017-020-022-023-036>040-048>070-010900-
SOUTHEAST SOUTH DAKOTA

CITY           SKY/WX    TMP DP  RH WIND       PRES   REMARKS
SIOUX FALLS    CLEAR     58  57  97 CALM      30.07S
HURON          CLEAR     59  55  87 CALM      30.05S
CHAMBERLAIN    CLEAR     59  56  88 CALM      30.07S
MITCHELL       CLEAR     61  59  93 E5        30.06F
YANKTON        CLEAR     57  55  94 CALM      30.07S
$$

ABBREVIATIONS USED IN REMARKS
   TC - TEMPERATURE IN CELSIUS
  WCI - WIND CHILL INDEX
   HX - HEAT INDEX
  VSB - VISIBILITY



USA.gov is the U.S. government's official web portal to all federal, state and local government web resources and services.